Terug naar catalogus

STARLINK-35658

ActiefCommunicatieVLEO
NORAD 66126·PAYLOAD·🇺🇸 United States

Gelanceerd Oct 22, 2025 vanaf Vandenberg Space Force Base

Loading…

Volgende Passages (komende 24 uur)

TLE

VersSource: CelesTrak SupGP

Epoch: Sep 14, 2026, 22:53 UTC

1 66126C 25237N   26257.95395833  .00027724  00000+0  81903-3 0  2579
2 66126  53.1577 237.3200 0001211  95.3019 231.0365 15.34379794    13

Volg STARLINK-35658 in realtime met AllMySat

Download on the App Store